When you browse on this site, cookies collect data to enhance your experience and personalize the content and advertising you see.
Visit our Privacy Policy to learn more. By continuing to use the site, you agree to this use of cookies and data.
EN

Hourly Weather Potosi

Today, 9 July, Thursday

Time Temperature Precipitation Wind Pressure Humidity
00:00 -1°C° 0 mm 1 mps 461 mmHg 13%
01:00 -1°C° 0 mm 1 mps 461 mmHg 13%
02:00 -2°C° 0 mm 1 mps 460 mmHg 13%
03:00 -2°C° 0 mm 1 mps 460 mmHg 12%
04:00 -3°C° 0 mm 1 mps 460 mmHg 12%
05:00 -3°C° 0 mm 1 mps 460 mmHg 11%
06:00 -2°C° 0 mm 1 mps 461 mmHg 12%
07:00 0°C° 0 mm 1 mps 463 mmHg 13%
08:00 +1°C° 0 mm 1 mps 464 mmHg 13%
09:00 +3°C° 0 mm 1 mps 466 mmHg 11%
10:00 +6°C° 0 mm 1 mps 467 mmHg 8%
11:00 +8°C° 0 mm 1 mps 469 mmHg 6%
12:00 +9°C° 0 mm 1 mps 469 mmHg 5%
13:00 +10°C° 0 mm 1 mps 469 mmHg 5%
14:00 +10°C° 0 mm 2 mps 469 mmHg 5%
15:00 +10°C° 0 mm 2 mps 468 mmHg 6%
16:00 +9°C° 0 mm 2 mps 468 mmHg 6%
17:00 +9°C° 0 mm 2 mps 467 mmHg 7%
18:00 +7°C° 0 mm 2 mps 466 mmHg 12%
19:00 +6°C° 0 mm 1 mps 465 mmHg 17%
20:00 +4°C° 0 mm 1 mps 464 mmHg 21%
21:00 +3°C° 0 mm 1 mps 464 mmHg 22%
22:00 +3°C° 0 mm 1 mps 464 mmHg 22%
23:00 +2°C° 0 mm 1 mps 464 mmHg 23%

Tomorrow, 10 July, Friday

Time Temperature Precipitation Wind Pressure Humidity
00:00 +2°C° 0 mm 1 mps 463 mmHg 22%
01:00 +2°C° 0 mm 1 mps 463 mmHg 21%
02:00 +1°C° 0 mm 1 mps 462 mmHg 21%
03:00 +1°C° 0 mm 1 mps 462 mmHg 19%
04:00 0°C° 0 mm 1 mps 461 mmHg 18%
05:00 0°C° 0 mm 1 mps 460 mmHg 16%
06:00 -1°C° 0 mm 2 mps 462 mmHg 16%
07:00 +1°C° 0 mm 2 mps 463 mmHg 15%
08:00 +2°C° 0 mm 2 mps 464 mmHg 14%
09:00 +4°C° 0 mm 2 mps 465 mmHg 12%
10:00 +6°C° 0 mm 2 mps 467 mmHg 10%
11:00 +9°C° 0 mm 3 mps 468 mmHg 7%
12:00 +10°C° 0 mm 4 mps 468 mmHg 7%
13:00 +10°C° 0 mm 5 mps 468 mmHg 7%
14:00 +11°C° 0 mm 6 mps 469 mmHg 7%
15:00 +10°C° 0 mm 6 mps 468 mmHg 7%
16:00 +9°C° 0 mm 6 mps 467 mmHg 8%
17:00 +9°C° 0 mm 6 mps 466 mmHg 9%
18:00 +6°C° 0 mm 5 mps 465 mmHg 11%
19:00 +4°C° 0 mm 3 mps 464 mmHg 14%
20:00 +3°C° 0 mm 2 mps 463 mmHg 16%
21:00 +2°C° 0 mm 2 mps 463 mmHg 16%
22:00 +2°C° 0 mm 2 mps 463 mmHg 15%
23:00 +1°C° 0 mm 2 mps 463 mmHg 15%

Day after tomorrow, 11 July, Saturday

Time Temperature Precipitation Wind Pressure Humidity
00:00 -1°C° 0 mm 2 mps 462 mmHg 14%
01:00 -1°C° 0 mm 2 mps 462 mmHg 12%
02:00 -2°C° 0 mm 2 mps 462 mmHg 11%
03:00 -2°C° 0 mm 2 mps 461 mmHg 11%
04:00 -1°C° 0 mm 1 mps 461 mmHg 10%
05:00 -2°C° 0 mm 1 mps 460 mmHg 10%
06:00 0°C° 0 mm 1 mps 461 mmHg 10%
07:00 -1°C° 0 mm 2 mps 463 mmHg 11%
08:00 +1°C° 0 mm 2 mps 464 mmHg 11%
09:00 +3°C° 0 mm 2 mps 466 mmHg 9%
10:00 +6°C° 0 mm 2 mps 467 mmHg 8%
11:00 +8°C° 0 mm 2 mps 469 mmHg 6%
12:00 +8°C° 0 mm 4 mps 469 mmHg 6%
13:00 +10°C° 0 mm 5 mps 469 mmHg 5%
14:00 +11°C° 0 mm 6 mps 469 mmHg 5%
15:00 +10°C° 0 mm 6 mps 469 mmHg 6%
16:00 +10°C° 0 mm 6 mps 468 mmHg 7%
17:00 +9°C° 0 mm 6 mps 467 mmHg 8%
18:00 +7°C° 0 mm 4 mps 466 mmHg 11%
19:00 +4°C° 0 mm 3 mps 464 mmHg 14%
20:00 +3°C° 0 mm 2 mps 463 mmHg 17%
21:00 +2°C° 0 mm 2 mps 463 mmHg 16%
22:00 +2°C° 0 mm 2 mps 463 mmHg 15%
23:00 +1°C° 0 mm 2 mps 463 mmHg 14%

12 July, Sunday

Time Temperature Precipitation Wind Pressure Humidity
00:00 +1°C° 0 mm 2 mps 462 mmHg 14%
01:00 -1°C° 0 mm 2 mps 462 mmHg 14%
02:00 -1°C° 0 mm 2 mps 462 mmHg 13%
03:00 -2°C° 0 mm 2 mps 461 mmHg 13%
04:00 -2°C° 0 mm 2 mps 461 mmHg 12%
05:00 0°C° 0 mm 1 mps 461 mmHg 12%
06:00 +1°C° 0 mm 1 mps 462 mmHg 12%
07:00 +2°C° 0 mm 1 mps 463 mmHg 13%
08:00 +3°C° 0 mm 1 mps 464 mmHg 14%
09:00 +6°C° 0 mm 1 mps 466 mmHg 11%
10:00 +8°C° 0 mm 1 mps 468 mmHg 9%
11:00 +11°C° 0 mm 1 mps 470 mmHg 6%
12:00 +12°C° 0 mm 1 mps 469 mmHg 6%
13:00 +12°C° 0 mm 1 mps 469 mmHg 6%
14:00 +13°C° 0 mm 1 mps 469 mmHg 6%
15:00 +13°C° 0 mm 2 mps 469 mmHg 6%
16:00 +13°C° 0 mm 2 mps 469 mmHg 7%
17:00 +13°C° 0 mm 2 mps 469 mmHg 7%
18:00 +10°C° 0 mm 1 mps 467 mmHg 10%
19:00 +8°C° 0 mm 1 mps 466 mmHg 14%
20:00 +6°C° 0 mm 1 mps 464 mmHg 17%
21:00 +5°C° 0 mm 1 mps 464 mmHg 17%
22:00 +4°C° 0 mm 1 mps 464 mmHg 17%
23:00 +4°C° 0 mm 1 mps 463 mmHg 17%

13 July, Monday

Time Temperature Precipitation Wind Pressure Humidity
00:00 +3°C° 0 mm 1 mps 463 mmHg 17%
01:00 +2°C° 0 mm 1 mps 462 mmHg 16%
02:00 +2°C° 0 mm 1 mps 462 mmHg 16%
03:00 +2°C° 0 mm 1 mps 462 mmHg 16%
04:00 +1°C° 0 mm 1 mps 461 mmHg 15%
05:00 +1°C° 0 mm 1 mps 461 mmHg 15%
06:00 +2°C° 0 mm 1 mps 462 mmHg 15%
07:00 +3°C° 0 mm 1 mps 464 mmHg 16%
08:00 +4°C° 0 mm 1 mps 465 mmHg 16%
09:00 +7°C° 0 mm 1 mps 467 mmHg 13%
10:00 +9°C° 0 mm 1 mps 469 mmHg 10%
11:00 +11°C° 0 mm 1 mps 470 mmHg 8%
12:00 +12°C° 0 mm 1 mps 470 mmHg 7%
13:00 +13°C° 0 mm 2 mps 470 mmHg 7%
14:00 +14°C° 0 mm 2 mps 470 mmHg 7%
15:00 +13°C° 0 mm 2 mps 470 mmHg 7%
16:00 +12°C° 0 mm 3 mps 469 mmHg 8%
17:00 +12°C° 0 mm 3 mps 469 mmHg 8%
18:00 +10°C° 0 mm 2 mps 468 mmHg 13%
19:00 +7°C° 0 mm 2 mps 467 mmHg 19%
20:00 +6°C° 0 mm 1 mps 466 mmHg 24%
21:00 +6°C° 0 mm 1 mps 466 mmHg 28%
22:00 +5°C° 0 mm 1 mps 465 mmHg 32%
23:00 +4°C° 0 mm 1 mps 465 mmHg 35%

14 July, Tuesday

Time Temperature Precipitation Wind Pressure Humidity
00:00 +4°C° 0 mm 1 mps 465 mmHg 40%
01:00 +3°C° 0 mm 1 mps 464 mmHg 45%
02:00 +2°C° 0 mm 1 mps 464 mmHg 49%
03:00 +2°C° 0 mm 1 mps 463 mmHg 53%
04:00 +1°C° 0 mm 1 mps 463 mmHg 57%
05:00 +1°C° 0 mm 1 mps 462 mmHg 62%
06:00 +2°C° 0 mm 1 mps 464 mmHg 58%
07:00 +3°C° 0 mm 1 mps 465 mmHg 54%
08:00 +4°C° 0 mm 1 mps 466 mmHg 51%
09:00 +6°C° 0 mm 1 mps 467 mmHg 41%
10:00 +8°C° 0 mm 1 mps 468 mmHg 32%
11:00 +9°C° 0 mm 2 mps 470 mmHg 23%
12:00 +10°C° 0 mm 2 mps 470 mmHg 20%
13:00 +12°C° 0 mm 2 mps 470 mmHg 17%
14:00 +13°C° 0 mm 2 mps 470 mmHg 15%
15:00 +13°C° 0 mm 2 mps 469 mmHg 18%
16:00 +12°C° 0 mm 2 mps 469 mmHg 21%
17:00 +11°C° 0 mm 3 mps 468 mmHg 24%
18:00 +9°C° 0 mm 2 mps 468 mmHg 31%
19:00 +7°C° 0 mm 2 mps 467 mmHg 39%
20:00 +7°C° 0 mm 1 mps 466 mmHg 46%
21:00 +5°C° 0 mm 2 mps 465 mmHg 49%
22:00 +4°C° 0 mm 2 mps 465 mmHg 53%
23:00 +4°C° 0 mm 2 mps 465 mmHg 56%
Show more